Tracking 31027 objects as of 19-Jul-2025
HD Live streaming from Space Station
objects crossing your sky now

STARLINK-6042

Track STARLINK-6042 now!
10-day predictions
STARLINK-6042 is classified as:


NORAD ID: 56808
Int'l Code: 2023-078AT
Perigee: 576.9 km
Apogee: 581.5 km
Inclination: 70.0 °
Period: 96.1 minutes
Semi major axis: 6950 km
RCS: Unknown
Launch date: May 31, 2023
Source: United States (US)
Launch site: AIR FORCE WESTERN TEST RANGE (AFWTR)
Your satellite tracking list
COSMOS 628
Track 1 satellite(s)




NASA's NSSDC Master Catalog

Two Line Element Set (TLE):
1 56808U 23078AT  25199.87442157 -.00000197  00000-0 -87356-5 0  9994
2 56808  69.9999 144.0691 0003253 264.3276  95.7512 14.98328687119396
Source of the keplerian elements: AFSPC